CAPE
2340 2420 2403 2325 2239 2158 2184 2306 2422 2462 2486 2457 2359 2351 2420 2379 2303 2199 2075 2016 1936 1876 1835 1744 1628 1427 1271 1193 894 527 441 423 444 281 128 367 21 51 93 117 174 230 196 198 199 186 127 76 12 32 7 18 0 5 30 26 80 51 52 47 57 30 0 0 0 3 3 0 7 24 16 7 18 0 0 0 0 0 345 84 3 41 109 67 32
2358 2433 2476 2487 2469 2430 2368 2378 2458 2515 2539 2548 2494 2400 2447 2444 2340 2243 2202 2111 2027 1927 1895 1834 1741 1544 1443 1291 893 585 480 461 492 484 454 449 426 305 67 132 107 168 214 225 194 207 149 90 25 34 18 48 22 30 66 84 91 130 118 104 80 68 41 367 49 8 50 2 12 0 5 10 48 0 0 0 0 0 0 0 0 0 0 0 0
2416 2466 2504 2551 2602 2628 2612 2572 2548 2592 2594 2583 2575 2501 2479 2510 2440 2378 2309 2239 2147 2054 1985 1947 1897 1748 1566 1307 919 663 598 618 371 497 527 505 491 458 256 104 144 177 179 309 177 132 88 84 61 24 71 62 41 44 61 67 77 135 128 401 155 112 452 478 479 517 48 252 0 0 1 1 13 11 0 0 0 7 0 0 0 0 0 0 0
2568 2566 2580 2601 2639 2698 2761 2751 2691 2678 2679 2651 2622 2593 2541 2551 2532 2473 2420 2342 2281 2210 2120 2038 1958 1807 1506 1235 957 748 684 708 558 404 484 517 515 518 509 379 140 137 110 161 319 460 446 400 231 264 100 92 29 49 64 80 62 57 78 58 174 201 160 107 80 557 524 0 0 0 0 0 0 0 0 1 0 0 0 0 0 0 0 0 0
2755 2725 2702 2709 2709 2740 2800 2827 2786 2745 2746 2715 2675 2634 2600 2599 2619 2577 2518 2440 2382 2322 2246 2144 2018 1832 1491 1180 979 811 748 737 640 469 438 472 521 528 518 468 286 133 99 85 398 435 420 341 149 68 185 204 35 34 38 90 72 444 472 470 49 82 141 411 585 597 585 242 0 0 0 0 0 0 0 4 0 0 0 0 0 0 0 0 0
2936 2890 2841 2820 2819 2815 2842 2857 2835 2784 2756 2753 2713 2673 2648 2601 2631 2662 2616 2542 2478 2421 2334 2228 2132 1940 1596 1210 967 852 790 756 676 517 468 468 500 543 531 458 294 145 114 65 123 176 431 124 79 64 309 358 54 7 2 11 6 252 448 227 38 45 24 499 534 507 425 66 0 0 366 365 60 45 168 112 19 0 0 0 0 0 0 0 0
3081 3067 2980 2933 2902 2894 2887 2892 2875 2831 2766 2749 2729 2697 2645 2615 2605 2675 2680 2627 2536 2474 2409 2324 2193 2032 1788 1484 1248 1115 1032 971 888 642 481 491 492 522 500 471 426 185 171 108 77 91 76 61 56 57 64 32 15 2 0 8 64 352 404 441 487 494 430 496 476 464 491 505 510 514 519 493 442 422 363 295 273 243 102 0 0 0 0 0 0
3187 3203 3128 3033 2983 2954 2926 2919 2916 2877 2811 2771 2730 2672 2631 2626 2611 2648 2701 2688 2631 2516 2435 2364 2250 2094 1921 1745 1536 1378 1255 1150 1058 876 548 495 530 557 510 272 472 491 471 265 209 128 136 96 81 69 87 64 51 31 23 68 328 436 504 561 606 616 580 564 590 610 611 603 597 602 589 578 542 474 467 455 441 384 276 199 107 7 0 0 0
3204 3296 3254 3163 3070 3006 2967 2955 2928 2893 2837 2781 2718 2645 2594 2611 2617 2612 2671 2726 2703 2634 2532 2410 2310 2188 2046 1895 1726 1568 1464 1354 1233 1063 786 549 550 604 591 303 417 500 540 545 498 468 137 134 126 92 196 479 320 286 302 472 533 562 606 638 664 670 666 690 705 723 712 681 678 651 635 616 606 579 568 570 525 450 372 245 176 3 2 1 0
3117 3282 3338 3290 3186 3082 3037 3000 2962 2915 2858 2767 2696 2642 2584 2581 2598 2593 2623 2710 2750 2726 2648 2539 2421 2293 2139 2013 1849 1709 1632 1558 1450 1282 1036 818 638 638 614 358 361 344 313 429 290 165 170 183 302 855 1204 1286 887 474 543 613 670 674 675 656 688 742 756 746 733 740 747 720 719 716 691 673 640 606 603 595 543 423 305 251 176 0 0 0 0
2974 3180 3326 3347 3310 3201 3116 3066 2988 2949 2881 2801 2724 2652 2588 2566 2560 2568 2598 2658 2726 2747 2725 2653 2553 2433 2294 2140 1972 1832 1773 1717 1640 1474 1295 1098 997 767 522 439 573 557 507 394 390 262 180 489 473 1040 1421 1524 1488 1022 724 681 763 801 841 844 827 815 806 778 768 750 737 759 749 751 711 679 662 648 610 574 505 430 346 337 238 178 143 68 0
2796 3026 3200 3304 3358 3324 3240 3156 3069 3002 2929 2880 2828 2759 2673 2608 2564 2532 2553 2604 2673 2748 2726 2694 2639 2555 2459 2346 2201 2050 1924 1833 1736 1637 1453 1396 1208 925 701 540 579 585 557 389 346 284 243 129 164 461 802 978 1066 1113 1091 1147 1192 1112 1026 1024 923 904 898 890 880 830 798 762 765 740 634 590 592 562 529 523 552 429 340 224 148 161 65 0 0
2638 2885 3071 3265 3386 3382 3326 3248 3182 3081 3000 2953 2917 2885 2812 2736 2655 2582 2552 2596 2666 2726 2743 2734 2709 2648 2573 2510 2410 2308 2167 2035 1892 1736 1589 1343 1366 1127 876 669 530 546 402 377 363 179 87 140 376 425 529 1237 1549 936 777 739 607 480 479 273 232 224 396 745 997 1004 951 838 697 616 649 628 587 619 586 311 509 540 448 252 241 340 333 292 252
2467 2789 3030 3289 3445 3455 3408 3328 3243 3166 3094 3036 2999 2983 2928 2870 2797 2727 2661 2644 2685 2747 2774 2772 2743 2704 2662 2607 2528 2439 2351 2242 2130 2020 1894 1745 1683 1190 1078 863 548 428 361 388 390 369 97 159 381 486 592 811 748 733 782 743 707 626 532 540 315 170 314 559 543 566 699 770 842 909 835 606 486 446 620 598 656 700 624 570 557 449 355 273 186
2254 2673 2995 3317 3521 3551 3501 3432 3351 3276 3189 3114 3065 3068 3035 2989 2951 2901 2839 2786 2773 2806 2839 2845 2827 2806 2747 2692 2624 2553 2482 2402 2304 2231 2188 2169 2019 1414 663 522 628 493 430 362 326 470 168 230 245 409 657 719 673 736 603 598 713 739 632 293 130 228 319 450 631 802 895 1049 1126 1107 953 716 693 676 710 718 786 870 792 532 398 333 266 235 225
2175 2554 2921 3239 3544 3646 3592 3518 3473 3408 3333 3252 3159 3144 3140 3108 3081 3060 3004 2960 2929 2908 2882 2888 2912 2888 2864 2807 2734 2669 2605 2518 2566 2620 2612 2537 2300 1674 1211 797 726 714 579 408 480 443 398 407 383 637 769 834 784 694 694 762 824 788 282 73 116 286 599 761 1008 1279 1277 1301 1312 1200 921 868 875 795 759 767 785 675 480 400 346 313 279 268 270
2161 2450 2799 3083 3434 3675 3677 3606 3560 3524 3482 3407 3281 3196 3222 3232 3208 3197 3150 3106 3072 3044 3035 3021 3000 2989 2962 2905 2867 2825 2803 2829 2900 2938 2908 2776 2566 1870 1788 1493 1235 928 647 557 521 591 613 618 477 721 776 760 646 691 633 662 634 320 79 104 168 442 770 1002 1138 1287 1400 1381 1325 1115 986 957 902 776 657 574 502 413 325 197 203 264 225 195 170
2238 2375 2655 2916 3222 3592 3750 3718 3661 3614 3570 3497 3389 3272 3282 3320 3333 3304 3281 3264 3232 3220 3190 3172 3165 3155 3133 3098 3083 3104 3115 3151 3190 3189 3094 2851 2640 2350 2020 1582 1307 936 824 664 650 800 841 1010 882 892 838 662 528 423 412 442 455 241 114 260 474 710 951 1167 1434 1431 1358 1239 1017 752 633 575 517 431 314 207 52 0 0 1 12 0 0 28 106
2391 2382 2543 2774 3022 3457 3767 3812 3760 3681 3606 3550 3440 3320 3335 3398 3409 3402 3412 3376 3353 3337 3338 3341 3339 3327 3323 3334 3363 3351 3394 3398 3393 3316 3169 2913 2696 2352 1928 1636 1222 972 845 583 595 698 811 1188 1030 867 741 464 370 316 358 416 457 253 341 561 710 883 1166 1433 1443 1379 1366 1199 877 651 542 481 399 312 272 36 56 102 85 0 110 83 46 0 49
2598 2543 2516 2621 2879 3328 3718 3824 3815 3752 3673 3580 3499 3402 3436 3464 3464 3479 3501 3500 3486 3472 3450 3468 3465 3473 3462 3517 3558 3574 3543 3518 3420 3232 3011 2817 2567 2147 1788 1582 1266 1096 946 826 737 457 663 706 781 639 520 193 184 195 261 340 368 187 428 639 808 1026 1224 1359 1375 1406 1264 939 792 639 454 399 191 115 76 84 234 454 270 249 264 226 133 0 76
2670 2651 2640 2644 2797 3274 3662 3835 3876 3843 3752 3669 3614 3534 3568 3575 3573 3570 3599 3635 3626 3584 3567 3606 3626 3644 3653 3644 3608 3550 3490 3374 3198 3088 2969 2720 2200 1880 1681 1500 1159 991 898 797 454 312 476 559 389 244 131 66 58 85 88 138 293 252 492 636 819 1012 1116 1265 1307 1179 1217 963 688 438 304 230 213 201 170 27 75 112 158 0 0 0 33 43 44
2612 2625 2669 2725 2964 3429 3773 3918 3948 3958 3907 3824 3766 3740 3720 3698 3700 3722 3760 3775 3740 3707 3693 3690 3666 3634 3573 3509 3414 3352 3231 3136 3118 3021 2903 2545 2129 1798 1622 1330 1022 968 868 545 316 0 432 423 229 224 69 39 65 63 36 104 292 133 117 341 566 798 1050 1322 1402 1234 899 608 397 312 272 230 172 0 0 35 127 134 53 3 12 35 4 112 105
2669 2659 2781 3100 3459 3792 3969 4035 4062 4063 4035 3947 3902 3902 3889 3859 3884 3899 3883 3887 3864 3824 3824 3788 3723 3657 3568 3454 3335 3218 3100 3082 3107 3019 2683 2295 1906 1722 1483 1117 1007 859 693 387 0 289 486 544 445 238 8 0 62 148 280 410 420 324 339 603 1214 1342 1304 1217 907 695 466 349 309 281 235 120 0 0 0 0 0 0 23 71 52 25 87 169 187
3462 3494 3492 3712 3926 4068 4126 4123 4142 4140 4094 4042 4028 4029 4031 4063 4071 4046 4011 4004 3990 3964 3908 3840 3749 3630 3501 3332 3209 3193 3147 3201 3206 2875 2476 2084 1834 1422 1157 1026 916 810 418 53 317 432 571 632 447 0 0 0 88 240 294 429 358 748 1026 1106 1101 972 753 653 596 451 310 277 235 186 0 0 0 0 0 2 1 0 5 8 8 7 6 0 0
4144 4023 3980 4053 4110 4169 4212 4222 4225 4210 4169 4160 4126 4123 4211 4230 4210 4169 4147 4116 4068 3973 3894 3769 3688 3536 3373 3337 3325 3297 3259 3053 2859 2382 2103 1899 1396 1202 1023 969 810 326 101 321 388 415 265 31 0 0 0 0 0 0 317 542 748 1011 1016 767 637 678 526 308 255 240 214 116 0 0 0 0 0 2 0 0 35 0 0 0 0 0 0 0 0
4312 4219 4164 4158 4163 4180 4261 4327 4316 4291 4272 4223 4224 4285 4321 4260 4229 4218 4146 4090 3971 3848 3754 3621 3516 3398 3385 3379 3356 3212 2936 2594 2296 2117 1883 1524 1148 1019 951 670 385 242 287 211 109 18 0 0 0 0 348 484 582 434 648 844 984 893 726 688 275 8 0 100 157 2 0 0 0 0 0 0 0 0 0 0 0 0 0 0 0 0 0 0 0
4367 4326 4336 4302 4258 4245 4283 4346 4380 4326 4260 4327 4405 4385 4280 4196 4169 4114 3932 3750 3630 3555 3494 3369 3276 3236 3214 3149 3034 2872 2598 2314 2106 1856 1613 1248 1063 900 677 425 0 356 279 90 0 0 0 267 475 601 661 628 650 719 825 860 813 821 314 0 0 0 0 0 0 0 0 0 0 0 0 0 0 0 0 0 0 0 0 0 0 0 0 0 0
4475 4442 4414 4402 4320 4268 4330 4428 4462 4431 4469 4438 4350 4242 4111 4067 3874 3615 3508 3502 3482 3436 3452 3418 3230 3106 2993 2892 2756 2581 2412 2242 1958 1632 1331 1040 946 842 552 0 0 0 0 0 0 0 271 419 496 487 504 540 628 720 772 769 544 96 0 0 0 0 0 0 0 0 0 0 0 0 0 0 0 0 0 0 0 0 0 0 0 0 0 0 0
4414 4319 4311 4037 4135 4156 4252 4467 4471 4439 4247 3974 4026 4047 3962 3696 3038 3106 3221 3245 3263 3289 3296 3234 3152 3034 2879 2695 2503 2374 2286 2094 1837 1401 1137 1117 1031 656 127 0 0 0 0 0 0 106 300 382 280 285 320 393 506 550 525 395 45 0 0 0 0 0 30 154 134 0 0 0 0 0 0 0 0 0 0 0 0 0 0 0 0 0 0 0 0
4254 4039 3678 3499 3628 3694 3683 4042 3924 3957 3876 3795 3749 3482 2990 2730 2870 3032 3133 3192 3220 3190 3126 3027 2923 2782 2553 2367 2208 2141 1968 1774 1422 1248 1194 1012 598 262 0 0 0 0 0 0 264 193 97 2 63 184 291 423 349 328 299 170 148 174 164 115 184 186 171 0 0 0 0 0 0 0 0 0 0 0 0 0 0 0 0 0 0 0 0 0 0
3124 3044 2956 2430 1922 2146 2546 3055 3243 3298 3226 3110 2863 2605 2654 2788 2859 2947 3059 3080 3070 2950 2766 2616 2472 2318 2097 1934 1757 1568 1402 1312 1193 1156 1001 610 402 0 0 0 0 0 46 249 21 0 0 81 218 352 285 53 46 149 162 187 205 254 242 243 252 230 0 0 0 0 0 0 0 0 0 0 0 0 0 0 0 0 0 0 0 0 0 0 0
2093 1500 1951 1818 1769 2004 1936 2381 2421 2480 2270 2284 2382 2504 2560 2618 2621 2604 2554 2574 2461 2281 2106 1899 1766 1695 1612 1534 1490 1409 1324 1146 898 751 628 342 0 0 0 0 0 0 61 0 0 0 0 269 245 0 0 141 186 199 173 0 0 0 215 276 306 300 168 0 18 0 0 0 0 0 0 2 2 0 0 0 0 0 0 0 0 0 0 0 0
1835 1714 1675 1121 1387 1430 1616 1698 1758 1965 2111 2204 2328 2391 2387 2377 2345 2134 1972 1954 1843 1725 1660 1546 1490 1472 1426 1333 1170 1200 1164 898 644 523 278 0 0 0 0 0 0 0 0 0 37 176 133 0 0 0 165 124 11 0 0 0 0 0 0 235 328 341 311 290 218 99 29 9 7 3 2 2 2 0 0 0 0 0 0 0 0 0 0 0 0
1044 1070 1208 1350 1413 1603 1700 1744 1850 2012 2107 2204 2248 2238 2213 2138 1894 1608 1591 1513 1453 1416 1361 1311 1309 1266 1179 1037 952 931 826 624 494 437 0 0 0 0 0 0 0 0 0 0 0 0 0 0 0 0 0 0 0 0 0 0 0 0 275 339 345 314 159 22 0 1 1 2 2 2 2 1 0 0 0 0 0 0 0 0 0 0 0 0 0
1165 1370 1648 1782 1808 1813 1866 1930 2020 2010 1986 1909 1817 1790 1762 1680 1408 1352 1369 1316 1280 1222 1153 1142 1093 1028 949 876 806 762 648 522 462 140 0 0 0 0 0 0 0 93 0 0 0 0 0 0 0 0 0 0 0 0 0 0 0 110 198 111 16 4 2 2 2 2 0 0 0 0 0 0 0 0 0 0 0 0 0 0 0 0 0 0 0
1847 1867 1844 1792 1704 1678 1627 1576 1563 1487 1371 1274 1240 1244 1262 1248 1218 1267 1251 1190 1061 961 908 919 851 817 777 730 670 576 409 0 0 0 0 0 50 370 400 385 279 72 0 0 43 73 100 0 0 0 0 0 0 0 0 0 0 0 0 0 0 2 2 2 2 3 3 2 1 0 0 0 0 0 0 0 0 0 0 0 0 0 0 0 0
2020 1950 1894 1829 1656 1522 1459 1356 1275 1233 1181 1126 1143 1157 1115 1119 1081 1026 978 951 827 758 714 705 731 699 656 507 158 0 0 0 0 295 571 609 613 613 560 366 187 237 309 314 247 129 0 0 0 0 0 0 0 0 0 0 0 0 0 2 2 2 2 2 1 0 0 0 0 0 0 0 0 0 0 0 0 0 0 0 0 0 0 0 0
1670 1597 1531 1541 1523 1498 1446 1412 1302 1095 1023 1010 1060 995 950 881 788 711 762 790 768 712 638 643 592 527 516 354 0 0 0 0 296 16 16 139 412 383 322 290 359 432 476 315 132 0 0 0 0 0 0 0 0 0 0 0 0 0 0 0 0 0 0 0 0 0 0 0 0 0 0 0 0 0 0 0 0 0 0 0 0 0 0 0 0
1426 1394 1367 1356 1383 1337 1268 1173 1079 956 922 896 851 723 673 638 517 238 540 555 558 572 570 562 573 408 0 0 0 0 0 0 0 0 0 39 185 186 194 215 178 148 98 0 0 0 0 0 0 0 0 0 0 0 0 0 0 0 0 0 0 0 0 0 0 0 0 0 0 0 0 0 0 0 0 0 0 0 0 0 0 0 0 0 0
999 875 822 807 790 818 842 818 737 680 596 490 363 317 303 122 0 0 0 0 0 124 0 266 275 0 0 0 0 0 0 0 0 0 41 89 95 90 107 124 107 12 0 0 0 0 0 0 0 0 0 0 0 0 0 0 0 0 0 0 0 0 0 0 0 0 0 0 0 0 0 0 0 0 0 0 0 0 0 0 0 0 0 0 0
745 645 573 511 535 650 712 675 594 561 526 461 49 0 0 0 102 19 0 0 0 0 0 0 0 0 0 0 0 0 0 0 0 0 17 55 59 66 36 0 0 0 0 0 0 0 0 0 0 0 0 0 0 0 0 0 0 0 0 0 0 0 0 0 0 0 0 0 0 0 0 0 0 0 0 0 0 0 0 0 0 0 0 0 0
834 734 524 388 335 404 527 625 681 673 647 452 288 2 59 68 0 0 0 46 237 0 0 0 0 0 0 0 0 0 0 0 46 9 0 0 0 0 0 0 0 0 0 0 0 0 0 0 0 0 0 0 0 0 0 0 0 0 0 0 0 0 0 0 0 0 0 0 0 0 0 0 0 0 0 0 0 0 0 0 0 0 0 0 0
834 786 669 534 421 342 368 411 430 394 368 312 294 360 362 339 312 278 229 169 135 0 0 0 0 0 0 0 0 0 0 0 0 0 0 0 0 0 0 0 0 0 0 0 0 0 0 0 0 0 0 0 0 0 0 0 0 0 0 0 0 0 0 0 0 0 0 0 0 0 0 0 0 0 0 0 0 0 0 0 0 0 0 0 0
398 615 556 547 570 480 352 360 323 273 256 124 82 321 451 439 369 356 291 267 227 68 0 0 0 157 205 153 0 0 0 0 0 0 0 0 0 0 0 0 0 0 0 0 0 0 0 0 0 0 0 0 0 0 0 0 0 0 0 0 0 0 0 0 0 0 0 0 0 0 0 0 0 0 0 0 0 0 0 0 0 0 0 0 0
511 591 549 527 372 357 329 486 400 439 400 370 287 318 401 526 560 459 403 312 185 75 0 0 22 17 0 0 0 0 0 0 0 0 0 0 0 0 0 0 0 0 0 0 0 0 0 0 0 0 0 0 0 0 0 0 0 0 0 0 0 0 0 0 0 0 0 0 0 0 0 0 0 0 0 0 0 0 0 0 0 0 0 0 0
492 659 529 363 219 268 400 518 562 544 500 466 312 325 420 469 494 411 324 309 244 100 0 0 0 0 0 0 0 0 0 0 0 0 0 0 0 0 0 0 0 0 0 0 0 1 2 0 0 0 0 0 0 0 0 0 0 0 0 0 0 0 0 0 0 0 0 0 0 0 0 0 0 0 0 0 0 0 0 0 0 0 0 0 0
195 353 591 436 261 293 378 485 566 630 477 292 171 207 194 342 339 335 294 320 257 4 0 0 0 0 0 0 0 0 0 0 0 0 0 0 0 0 0 0 0 0 1 2 2 0 0 0 0 0 0 0 0 0 0 0 0 0 0 0 0 0 0 0 0 0 0 0 0 0 0 0 0 0 0 0 0 0 0 0 0 0 0 0 0
186 151 175 276 270 216 209 208 346 399 302 154 183 188 300 287 378 353 346 320 273 199 79 68 0 0 0 0 0 0 0 0 0 0 0 0 0 5 5 4 6 8 4 0 0 0 0 0 0 0 0 0 0 0 0 0 0 0 0 0 0 0 0 0 0 0 0 0 0 0 0 0 0 0 0 0 0 0 0 0 0 0 0 0 0
181 214 256 220 238 216 190 189 174 107 90 102 128 118 159 308 286 338 240 198 269 207 146 45 2 0 0 0 0 0 0 0 0 0 0 0 2 5 3 1 5 8 7 0 0 0 0 0 0 0 0 0 0 0 0 0 0 0 0 0 0 0 0 0 0 0 0 0 0 0 0 0 0 0 0 0 0 0 0 0 0 0 0 0 0
174 168 194 220 213 202 200 189 155 140 0 88 97 98 69 86 89 95 122 155 142 55 0 8 0 0 0 0 0 0 0 0 0 0 0 3 8 14 15 16 15 12 13 16 16 9 0 0 0 0 0 0 0 0 0 0 0 0 0 0 0 0 0 0 0 0 0 0 0 0 0 0 0 0 0 0 0 0 0 0 0 0 0 0 0
208 199 216 232 208 196 168 146 172 131 99 78 64 0 53 35 88 9 44 56 66 0 0 0 0 0 0 0 0 0 0 0 0 0 2 15 25 16 9 12 13 14 20 19 8 3 0 0 0 0 0 0 0 0 0 0 0 0 0 0 0 0 0 0 0 0 0 0 0 0 0 0 0 0 0 0 0 0 0 0 0 0 0 0 0
Wind_Speed
14 12 13 13 12 11 11 12 12 12 10 8 6 5 4 4 4 5 6 8 9 10 11 13 15 16 18 19 21 23 24 25 26 28 29 29 nan nan nan 32 33 32 32 31 30 32 33 nan nan nan nan nan nan nan nan nan nan nan nan nan nan nan nan nan nan nan nan nan nan nan nan nan nan nan nan nan nan nan 27 nan nan nan 26 nan nan
11 11 11 10 10 9 9 11 11 10 8 5 4 4 3 2 3 5 8 8 9 11 12 12 14 17 18 20 22 23 25 27 29 30 31 31 32 31 nan 33 33 33 33 34 34 33 34 nan nan nan nan nan nan nan nan nan nan 25 22 22 nan nan nan 28 nan nan nan nan nan nan nan nan nan nan nan nan nan nan nan nan nan nan nan nan nan
12 12 11 10 9 9 9 9 10 8 6 4 2 2 2 2 3 6 8 8 8 9 11 13 16 18 19 21 23 24 26 29 30 31 31 32 34 33 32 33 34 34 35 35 36 35 nan nan nan nan nan nan nan nan nan nan nan 28 26 25 24 23 24 26 29 27 nan 26 nan nan nan nan nan nan nan nan nan nan nan nan nan nan nan nan nan
13 12 11 10 10 9 9 9 9 7 5 3 2 1 2 2 3 5 7 7 8 8 11 14 16 18 20 22 24 25 28 28 30 30 32 34 35 36 35 35 35 35 35 35 35 35 35 35 34 33 nan nan nan nan nan nan nan nan nan nan 26 25 25 27 nan 29 29 nan nan nan nan nan nan nan nan nan nan nan nan nan nan nan nan nan nan
14 13 12 11 10 10 9 9 8 7 5 4 2 1 1 3 4 6 6 6 7 9 10 13 15 17 20 23 25 27 29 30 30 31 32 34 36 38 38 37 36 34 nan nan 35 35 35 36 36 nan 33 31 nan nan nan nan nan 27 26 26 nan nan 27 29 29 30 30 30 nan nan nan nan nan nan nan nan nan nan nan nan nan nan nan nan nan
15 15 14 13 12 11 10 9 8 7 6 4 3 2 2 4 5 5 5 5 7 9 11 12 14 18 20 23 26 28 29 30 32 33 34 35 36 38 39 39 37 36 35 nan 35 35 36 37 nan nan 35 34 nan nan nan nan nan 27 27 27 nan nan nan 30 31 31 32 nan nan nan 35 34 nan nan 32 32 nan nan nan nan nan nan nan nan nan
17 16 15 15 14 13 12 11 9 8 7 5 5 4 3 4 4 3 4 5 7 9 9 12 14 18 21 23 26 29 30 31 32 33 34 34 36 39 40 40 38 38 38 37 nan nan nan nan nan nan nan nan nan nan nan nan nan 30 31 30 30 31 32 32 33 33 33 32 32 34 32 33 34 31 32 34 32 33 32 nan nan nan nan nan nan
20 18 17 15 14 15 14 13 11 10 9 8 7 5 4 3 3 4 6 5 6 7 10 14 16 18 22 25 27 29 30 31 32 34 34 35 36 38 40 40 39 38 37 34 34 34 35 nan nan nan nan nan nan nan nan nan 33 32 33 33 33 34 35 36 36 36 36 36 36 35 36 35 37 34 35 38 35 33 37 38 34 nan nan nan nan
22 21 19 17 15 15 15 15 13 12 12 10 8 5 3 4 5 7 6 5 5 6 11 15 17 19 23 26 29 30 32 32 33 36 37 36 37 38 39 39 38 38 37 36 34 33 34 36 36 nan 36 36 35 33 34 35 36 34 34 36 36 37 37 38 38 38 38 39 39 40 38 36 35 35 34 35 37 37 40 43 36 nan nan nan nan
23 23 22 19 17 17 17 17 16 15 13 11 8 5 5 6 8 7 6 4 5 9 12 16 18 20 24 27 29 31 32 32 36 43 43 40 40 38 36 38 38 38 40 39 35 34 34 34 34 38 38 37 35 35 36 37 37 36 37 39 39 39 38 37 38 39 39 39 41 42 39 34 33 35 35 36 39 42 40 37 35 nan nan nan nan
23 23 22 20 21 20 19 18 19 17 15 12 10 8 7 9 9 9 8 6 7 11 13 16 18 21 25 28 31 32 33 35 42 45 48 50 43 34 30 35 37 37 38 38 36 35 33 33 33 35 36 35 35 36 36 36 34 33 32 34 36 40 38 36 38 41 40 37 37 39 37 31 30 33 35 35 40 40 38 39 39 41 42 nan nan
24 23 22 23 25 23 21 21 20 18 17 14 12 11 11 11 10 10 9 8 10 13 14 16 18 22 24 28 31 32 34 39 45 49 53 56 47 39 37 38 38 37 37 37 35 34 33 33 33 34 34 35 35 35 35 37 36 37 38 38 38 35 33 36 39 40 40 36 31 30 31 30 28 31 33 38 38 38 40 42 43 43 nan nan nan
24 23 24 26 27 25 24 24 21 20 18 17 16 16 14 12 11 10 8 10 14 14 14 17 20 23 27 30 31 33 34 41 46 50 57 62 55 47 42 41 40 39 39 38 36 35 nan 35 34 35 36 38 37 38 39 39 40 41 40 39 37 33 30 34 39 38 38 34 29 27 31 32 31 33 39 39 43 42 42 41 41 41 41 40 40
25 25 27 27 27 27 27 26 23 21 21 21 20 19 16 13 13 12 12 13 15 14 15 18 21 25 29 31 32 34 36 41 47 52 60 64 62 52 39 37 38 40 40 39 39 39 nan 38 38 37 37 39 41 41 39 38 36 35 34 34 33 31 30 30 31 32 32 31 30 30 33 39 36 35 36 43 44 41 40 39 39 39 40 40 43
26 27 28 28 28 28 28 27 25 24 24 23 22 20 18 16 15 15 14 14 15 16 18 20 23 27 31 33 34 35 37 44 49 55 58 60 61 57 44 42 43 43 42 43 44 43 42 41 40 41 40 41 42 43 42 39 36 35 35 33 32 29 28 29 32 33 34 35 35 35 35 36 38 38 40 45 44 43 44 43 42 42 43 45 43
28 29 28 29 29 29 29 28 28 28 27 26 23 21 19 18 16 17 16 16 16 17 18 21 25 29 33 35 37 37 39 49 53 57 58 56 58 55 50 48 47 47 46 47 48 47 46 44 43 43 43 43 46 50 46 41 37 34 32 nan 27 27 28 31 33 36 37 38 38 38 39 40 40 41 42 45 46 46 46 45 45 46 46 44 41
29 31 30 30 30 30 29 30 31 31 30 28 24 21 20 18 18 21 19 18 19 19 21 23 27 32 35 37 39 39 41 50 57 60 60 61 58 52 50 48 47 48 49 49 50 49 47 46 46 47 46 45 47 50 47 43 38 35 nan 28 27 28 29 36 39 37 36 35 35 36 37 39 40 40 41 43 47 50 51 47 43 45 44 40 39
27 30 32 32 31 31 30 31 32 33 33 30 25 22 20 20 20 23 22 21 21 22 23 26 29 33 37 39 41 42 44 51 61 63 64 65 61 53 49 47 47 47 47 47 48 48 48 53 49 47 46 45 48 47 44 41 36 33 30 28 26 27 30 36 38 38 37 37 37 39 39 40 42 43 44 45 nan nan nan nan nan nan nan nan 39
28 28 29 33 34 33 32 32 33 34 33 31 28 23 21 22 23 25 23 24 24 25 26 28 31 33 36 38 43 46 47 52 62 64 62 58 53 46 46 46 47 46 47 48 48 49 49 50 52 48 46 45 48 45 44 42 36 35 35 33 31 32 35 39 38 36 38 40 41 42 44 45 48 49 47 nan nan 47 nan nan 42 nan nan nan nan
33 32 32 35 36 35 33 32 33 34 34 33 30 25 24 26 27 27 26 26 27 28 29 31 33 33 35 38 41 45 48 50 53 57 52 51 51 45 45 47 47 48 49 50 51 48 49 48 49 50 49 48 46 44 42 43 39 38 39 37 36 36 42 42 40 40 41 42 42 43 45 46 46 47 nan nan 44 47 48 46 46 47 45 nan nan
38 40 40 39 37 35 34 33 34 34 35 34 32 29 28 29 30 30 30 31 32 33 33 32 33 34 36 38 41 44 46 48 46 48 47 50 51 50 47 49 49 51 52 52 53 52 49 46 44 46 48 nan nan nan nan 42 40 40 41 41 42 44 46 42 40 43 43 44 45 45 45 46 46 45 44 nan nan 45 47 nan nan nan nan nan nan
44 45 45 42 40 38 36 35 36 36 36 36 35 32 32 34 34 34 35 35 36 36 35 34 34 34 35 38 41 43 45 49 44 44 48 52 53 53 50 50 53 55 55 53 53 nan 49 46 43 42 nan nan nan nan nan 39 39 41 40 42 48 51 45 43 43 44 45 45 45 46 47 47 46 nan nan nan 46 46 nan nan nan nan nan 36 34
47 47 48 46 44 42 40 39 39 38 37 36 38 39 40 39 38 39 39 38 39 39 37 36 37 37 38 39 40 42 43 44 47 47 49 54 54 54 54 53 57 57 57 55 nan 50 46 44 42 44 nan nan nan 38 37 38 41 40 43 49 51 49 46 43 43 44 44 45 46 44 45 45 nan nan nan nan nan nan nan nan nan nan nan 35 34
54 52 50 47 44 44 44 42 41 41 40 40 42 45 44 43 42 41 40 41 42 42 39 38 39 40 40 40 40 40 41 43 43 50 53 54 54 54 54 57 61 58 57 nan 50 47 45 44 44 nan nan nan nan 40 40 43 42 47 51 51 51 47 43 43 43 44 44 44 43 42 nan nan nan nan nan nan nan nan nan nan nan nan nan nan nan
59 56 54 53 51 49 49 48 45 44 43 43 44 47 48 47 44 42 43 45 45 42 39 40 41 40 40 40 41 41 41 42 45 48 55 56 56 55 54 58 60 61 56 50 48 46 46 nan nan nan nan nan nan nan 43 43 46 49 50 51 48 44 44 44 44 44 43 42 nan nan nan nan nan nan nan nan nan nan nan nan nan nan nan nan nan
66 65 66 67 66 63 58 54 51 49 48 47 47 49 51 48 47 47 48 48 47 43 41 42 42 40 39 39 40 41 42 43 46 49 50 53 54 56 56 56 58 55 51 49 50 nan nan nan nan nan 49 47 44 42 41 41 45 47 48 46 43 nan nan nan 42 nan nan nan nan nan nan nan nan nan nan nan nan nan nan nan nan nan nan nan nan
76 76 75 76 77 71 64 58 56 54 54 54 53 54 53 50 49 50 50 49 47 43 43 44 43 40 40 39 39 40 42 43 47 49 50 51 51 51 51 52 nan 51 49 nan nan nan nan 48 47 46 45 45 43 43 44 46 45 44 43 nan nan nan nan nan nan nan nan nan nan nan nan nan nan nan nan nan nan nan nan nan nan nan nan nan nan
85 84 83 84 84 76 66 62 61 58 58 58 57 56 53 50 51 51 49 46 44 42 44 45 42 40 40 40 40 41 42 44 46 49 50 51 51 51 50 nan nan nan nan nan nan nan 47 48 48 44 44 43 41 42 43 43 43 nan nan nan nan nan nan nan nan nan nan nan nan nan nan nan nan nan nan nan nan nan nan nan nan nan nan nan nan
83 84 85 83 81 75 67 64 65 64 64 68 65 59 53 52 53 53 47 43 43 45 46 45 42 41 43 44 44 43 44 45 45 49 53 56 56 53 49 nan nan nan nan nan nan 45 46 46 45 45 43 42 41 42 43 42 nan nan nan nan nan nan nan 40 40 nan nan nan nan nan nan nan nan nan nan nan nan nan nan nan nan nan nan nan nan
79 76 77 78 73 68 63 62 64 63 62 62 63 62 65 63 55 51 46 44 46 48 51 46 43 45 46 44 46 49 46 46 55 59 57 57 57 57 nan nan nan nan nan nan 47 46 nan nan nan 43 42 42 42 42 42 42 40 39 37 38 39 39 39 nan nan nan nan nan nan nan nan nan nan nan nan nan nan nan nan nan nan nan nan nan nan
80 77 72 69 66 65 59 57 57 58 58 62 64 61 58 59 62 57 50 47 50 53 51 51 51 50 50 48 45 45 49 59 61 58 57 56 55 nan nan nan nan nan nan 48 nan nan nan nan 41 40 40 nan nan 41 41 41 39 38 37 38 39 37 nan nan nan nan nan nan nan nan nan nan nan nan nan nan nan nan nan nan nan nan nan nan nan
73 71 67 61 58 54 51 50 53 57 58 59 59 56 55 54 53 56 55 53 55 53 51 51 52 51 52 53 52 45 51 57 60 59 58 57 nan nan nan nan nan nan nan nan nan nan nan 42 39 nan nan 41 40 39 40 nan nan nan 37 37 35 33 31 nan nan nan nan nan nan nan nan nan nan nan nan nan nan nan nan nan nan nan nan nan nan
68 62 52 42 39 39 43 48 54 56 57 57 54 52 50 51 52 51 52 58 60 59 57 55 54 54 53 52 53 54 56 58 60 61 61 nan nan nan nan nan nan nan nan nan nan 41 40 nan nan nan 40 39 nan nan nan nan nan nan nan 34 31 30 30 30 32 nan nan nan nan nan nan nan nan nan nan nan nan nan nan nan nan nan nan nan nan
56 40 29 30 36 42 47 50 52 53 53 54 52 51 50 49 48 50 51 51 56 58 58 57 55 57 56 54 55 58 62 63 62 61 nan nan nan nan nan nan nan nan nan nan nan nan nan nan nan nan nan nan nan nan nan nan nan nan 33 31 29 30 31 nan nan nan nan nan nan nan nan nan nan nan nan nan nan nan nan nan nan nan nan nan nan
41 37 35 37 40 43 46 47 47 48 49 49 49 50 50 49 51 51 49 50 52 52 49 50 52 52 52 54 57 62 63 60 59 58 nan nan nan nan nan nan nan nan nan nan nan nan nan nan nan nan nan nan nan nan nan nan nan 34 33 31 nan nan nan nan nan nan nan nan nan nan nan nan nan nan nan nan nan nan nan nan nan nan nan nan nan
36 38 40 43 43 44 44 43 42 44 46 48 49 50 50 52 53 52 52 52 52 52 52 50 48 50 59 61 62 62 59 nan nan nan nan nan nan 50 44 41 41 nan nan nan nan nan 38 nan nan nan nan nan nan nan nan nan nan nan nan nan nan nan nan nan nan nan nan nan nan nan nan nan nan nan nan nan nan nan nan nan nan nan nan nan nan
31 33 36 40 43 42 42 41 42 45 46 47 48 50 51 53 52 51 51 52 52 53 54 51 50 52 55 55 58 nan nan nan nan 47 46 45 44 42 41 41 39 38 37 36 36 37 nan nan nan nan nan nan nan nan nan nan nan nan nan nan nan nan nan nan nan nan nan nan nan nan nan nan nan nan nan nan nan nan nan nan nan nan nan nan nan
31 34 35 38 40 41 41 42 44 48 47 46 48 49 49 49 49 50 52 53 55 56 54 49 49 52 51 48 nan nan nan nan 48 nan nan 39 37 38 39 38 38 37 35 34 35 nan nan nan nan nan nan nan nan nan nan nan nan nan nan nan nan nan nan nan nan nan nan nan nan nan nan nan nan nan nan nan nan nan nan nan nan nan nan nan nan
32 37 40 40 40 40 41 42 44 46 47 48 49 49 49 49 50 50 51 54 56 56 53 50 50 48 nan nan nan nan nan nan nan nan nan nan 36 37 38 37 36 35 nan nan nan nan nan nan nan nan nan nan nan nan nan nan nan nan nan nan nan nan nan nan nan nan nan nan nan nan nan nan nan nan nan nan nan nan nan nan nan nan nan nan nan
32 33 35 40 39 41 41 43 44 46 46 48 48 50 52 52 nan nan nan nan nan 54 nan 50 48 nan nan nan nan nan nan nan nan nan nan nan nan nan 35 36 34 nan nan nan nan nan nan nan nan nan nan nan nan nan nan nan nan nan nan nan nan nan nan nan nan nan nan nan nan nan nan nan nan nan nan nan nan nan nan nan nan nan nan nan nan
32 33 34 36 38 40 42 44 45 45 46 48 nan nan nan nan 53 nan nan nan nan nan nan nan nan nan nan nan nan nan nan nan nan nan nan nan nan nan nan nan nan nan nan nan nan nan nan nan nan nan nan nan nan nan nan nan nan nan nan nan nan nan nan nan nan nan nan nan nan nan nan nan nan nan nan nan nan nan nan nan nan nan nan nan nan
36 38 38 39 40 42 43 44 45 47 49 52 53 nan nan nan nan nan nan nan 54 nan nan nan nan nan nan nan nan nan nan nan nan nan nan nan nan nan nan nan nan nan nan nan nan nan nan nan nan nan nan nan nan nan nan nan nan nan nan nan nan nan nan nan nan nan nan nan nan nan nan nan nan nan nan nan nan nan nan nan nan nan nan nan nan
41 43 45 44 44 46 47 48 49 49 50 51 52 52 53 53 52 53 56 57 56 nan nan nan nan nan nan nan nan nan nan nan nan nan nan nan nan nan nan nan nan nan nan nan nan nan nan nan nan nan nan nan nan nan nan nan nan nan nan nan nan nan nan nan nan nan nan nan nan nan nan nan nan nan nan nan nan nan nan nan nan nan nan nan nan
41 43 45 45 45 46 47 50 50 48 49 52 nan 51 51 52 54 55 57 57 54 nan nan nan nan 31 32 33 nan nan nan nan nan nan nan nan nan nan nan nan nan nan nan nan nan nan nan nan nan nan nan nan nan nan nan nan nan nan nan nan nan nan nan nan nan nan nan nan nan nan nan nan nan nan nan nan nan nan nan nan nan nan nan nan nan
42 43 45 45 44 44 42 43 44 44 45 47 48 49 50 51 51 50 49 46 42 nan nan nan nan nan nan nan nan nan nan nan nan nan nan nan nan nan nan nan nan nan nan nan nan nan nan nan nan nan nan nan nan nan nan nan nan nan nan nan nan nan nan nan nan nan nan nan nan nan nan nan nan nan nan nan nan nan nan nan nan nan nan nan nan
42 44 46 47 47 47 47 46 43 43 42 41 39 40 42 41 41 38 36 33 31 nan nan nan nan nan nan nan nan nan nan nan nan nan nan nan nan nan nan nan nan nan nan nan nan nan nan nan nan nan nan nan nan nan nan nan nan nan nan nan nan nan nan nan nan nan nan nan nan nan nan nan nan nan nan nan nan nan nan nan nan nan nan nan nan
37 39 40 43 45 48 49 48 46 44 43 39 33 29 27 30 30 28 28 29 29 nan nan nan nan nan nan nan nan nan nan nan nan nan nan nan nan nan nan nan nan nan nan nan nan nan nan nan nan nan nan nan nan nan nan nan nan nan nan nan nan nan nan nan nan nan nan nan nan nan nan nan nan nan nan nan nan nan nan nan nan nan nan nan nan
37 38 38 39 41 43 43 42 42 38 34 31 28 27 21 19 24 23 25 28 30 30 nan nan nan nan nan nan nan nan nan nan nan nan nan nan nan nan nan nan nan nan nan nan nan nan nan nan nan nan nan nan nan nan nan nan nan nan nan nan nan nan nan nan nan nan nan nan nan nan nan nan nan nan nan nan nan nan nan nan nan nan nan nan nan
38 39 38 37 38 39 39 37 34 33 nan 32 31 27 23 19 25 28 29 30 31 32 33 nan nan nan nan nan nan nan nan nan nan nan nan nan nan nan nan nan nan nan nan nan nan nan nan nan nan nan nan nan nan nan nan nan nan nan nan nan nan nan nan nan nan nan nan nan nan nan nan nan nan nan nan nan nan nan nan nan nan nan nan nan nan
36 35 34 34 33 33 33 32 31 32 nan nan nan nan nan nan nan nan 35 34 35 nan nan nan nan nan nan nan nan nan nan nan nan nan nan nan nan nan nan nan nan nan nan nan nan nan nan nan nan nan nan nan nan nan nan nan nan nan nan nan nan nan nan nan nan nan nan nan nan nan nan nan nan nan nan nan nan nan nan nan nan nan nan nan nan
35 33 31 31 31 31 30 30 28 28 nan nan nan nan nan nan nan nan nan nan nan nan nan nan nan nan nan nan nan nan nan nan nan nan nan nan nan nan nan nan nan nan nan nan nan nan nan nan nan nan nan nan nan nan nan nan nan nan nan nan nan nan nan nan nan nan nan nan nan nan nan nan nan nan nan nan nan nan nan nan nan nan nan nan nan
Wind_Direction
293 287 279 282 284 289 285 279 279 272 274 278 280 284 288 293 298 315 315 345 339 343 344 343 339 337 333 333 336 337 339 341 340 341 347 355 nan nan nan 350 349 347 345 348 347 344 344 nan nan nan nan nan nan nan nan nan nan nan nan nan nan nan nan nan nan nan nan nan nan nan nan nan nan nan nan nan nan nan 288 nan nan nan 289 nan nan
295 288 280 281 292 289 286 275 274 270 278 276 276 277 280 286 299 307 344 343 339 342 342 336 332 332 333 336 337 340 342 343 344 347 353 356 357 355 nan 352 349 348 345 346 345 341 340 nan nan nan nan nan nan nan nan nan nan 325 322 318 nan nan nan 296 nan nan nan nan nan nan nan nan nan nan nan nan nan nan nan nan nan nan nan nan nan
296 287 286 287 298 290 284 279 277 282 290 274 289 287 270 272 299 336 339 337 335 338 335 330 329 331 335 338 339 341 343 346 349 351 354 355 356 356 355 353 351 348 346 344 340 336 nan nan nan nan nan nan nan nan nan nan nan 325 325 320 319 312 305 300 294 294 nan 292 nan nan nan nan nan nan nan nan nan nan nan nan nan nan nan nan nan
293 291 292 296 300 297 291 283 290 295 302 276 300 289 255 274 317 336 334 324 332 331 327 326 325 333 339 340 340 340 343 348 351 352 353 354 353 353 352 351 350 346 342 338 334 332 332 331 334 333 nan nan nan nan nan nan nan nan nan nan 319 318 312 305 nan 298 293 nan nan nan nan nan nan nan nan nan nan nan nan nan nan nan nan nan nan
300 302 301 306 306 305 302 294 302 309 308 275 304 294 294 299 307 333 322 325 322 317 319 318 327 335 341 339 338 341 345 349 351 351 351 350 350 349 349 349 347 342 nan nan 331 330 330 331 332 nan 327 329 nan nan nan nan nan 325 324 319 nan nan 317 314 311 304 299 297 nan nan nan nan nan nan nan nan nan nan nan nan nan nan nan nan nan
301 302 305 312 313 320 315 308 313 317 312 298 299 292 302 304 310 313 318 318 306 313 317 318 331 339 338 336 337 340 343 348 349 348 350 349 347 346 346 346 345 342 338 nan 335 332 330 330 nan nan 328 328 nan nan nan nan nan 323 322 318 nan nan nan 315 313 311 307 nan nan nan 288 291 nan nan 286 289 nan nan nan nan nan nan nan nan nan
296 300 304 311 314 325 325 321 306 301 296 285 267 271 294 307 303 304 288 298 303 306 313 327 333 335 334 332 336 337 342 347 345 343 345 346 344 343 342 342 343 344 342 339 nan nan nan nan nan nan nan nan nan nan nan nan nan 321 322 320 315 312 314 315 314 313 311 307 301 298 293 288 289 286 286 289 293 296 297 nan nan nan nan nan nan
296 300 301 305 313 322 323 316 307 297 283 278 278 284 288 280 266 252 258 283 300 310 320 331 331 329 329 330 332 335 340 342 341 340 340 341 338 337 337 340 344 345 342 339 335 334 334 nan nan nan nan nan nan nan nan nan 318 319 318 314 313 313 314 314 314 314 313 309 305 298 294 289 285 285 282 285 290 293 300 301 300 nan nan nan nan
299 305 305 306 310 309 305 304 300 295 291 289 293 292 274 257 251 252 254 260 268 309 319 325 328 329 325 327 330 333 337 339 337 335 334 334 331 331 336 343 345 342 338 338 337 335 332 335 335 nan 325 325 326 322 320 319 316 317 314 312 313 314 314 314 316 316 315 311 304 297 289 286 287 285 286 290 297 304 302 300 301 nan nan nan nan
300 310 319 317 300 292 293 292 296 296 297 301 298 279 247 248 256 259 253 252 283 306 315 321 327 327 324 326 328 330 335 335 338 339 333 327 325 327 334 342 342 338 338 339 337 335 335 334 333 335 331 331 329 328 325 325 322 314 312 311 314 314 314 316 317 319 318 316 312 304 293 285 284 285 287 290 294 296 297 297 297 nan nan nan nan
299 309 321 313 295 287 283 286 290 298 303 298 285 268 253 248 255 255 246 256 298 308 311 318 322 320 323 324 326 329 334 337 341 336 331 323 316 318 331 336 336 338 339 341 340 337 334 332 327 329 328 328 329 330 325 323 321 318 312 308 309 311 313 317 318 318 319 317 313 309 303 294 289 286 287 290 292 296 294 291 294 291 291 nan nan
300 305 310 301 296 294 287 283 288 296 297 300 290 268 251 249 253 250 247 275 294 296 305 315 316 315 316 320 324 330 336 341 340 334 324 309 311 339 335 332 336 339 338 340 339 335 334 330 325 321 320 319 318 314 311 313 315 317 315 313 312 313 313 315 316 314 314 312 310 314 310 306 300 292 289 290 292 291 291 290 290 290 nan nan nan
295 298 296 295 298 296 288 285 288 290 297 298 285 268 257 250 252 248 256 277 285 292 302 306 311 313 316 321 326 332 336 339 337 328 314 313 336 340 328 333 337 338 338 339 337 334 nan 328 324 321 318 325 316 310 309 309 309 307 306 308 312 316 320 322 319 314 308 308 305 307 308 303 300 295 292 292 290 289 286 287 289 290 289 288 287
285 288 289 292 295 292 289 288 287 290 290 287 282 277 267 259 251 245 250 267 282 292 299 309 311 315 318 322 327 331 334 333 330 319 314 324 337 333 323 332 332 334 336 335 333 333 nan 329 325 322 322 317 314 313 309 306 306 304 304 304 307 313 323 329 326 324 320 315 307 306 302 299 302 297 293 291 290 290 290 292 292 291 291 293 290
278 278 282 286 287 287 288 289 289 287 285 284 284 282 275 260 252 247 255 274 287 296 304 310 314 315 317 322 326 328 329 326 320 317 322 326 328 322 332 329 329 333 333 332 333 333 332 330 325 325 323 321 320 316 311 309 307 306 303 305 311 315 311 309 313 317 318 313 311 308 304 301 300 297 293 293 296 298 300 299 297 295 292 289 288
275 273 276 281 286 287 287 287 286 283 284 284 284 282 275 268 262 256 261 271 278 286 296 307 313 314 318 323 325 326 322 320 318 320 323 324 321 318 324 326 328 330 329 329 331 331 330 329 325 323 323 322 319 319 317 315 311 306 305 nan 304 307 312 313 317 318 314 310 308 308 305 302 299 297 297 298 298 298 296 296 295 294 292 291 293
274 274 276 279 284 285 284 284 284 285 286 286 284 281 275 269 264 261 267 276 285 295 304 309 308 313 318 321 322 321 315 318 319 320 320 321 315 316 318 319 323 325 325 326 327 326 325 325 323 323 323 322 323 322 323 319 312 309 nan 309 306 308 313 310 315 317 314 310 308 303 299 298 299 302 304 304 301 297 297 295 297 295 293 294 294
272 272 273 275 279 281 281 281 282 285 286 287 284 276 270 266 270 268 274 282 290 297 300 303 307 313 317 319 319 319 314 318 319 319 319 319 319 315 316 319 323 321 319 319 320 321 322 324 322 323 323 321 322 324 324 316 313 310 303 300 305 311 311 308 307 306 306 305 302 302 302 301 302 303 304 304 nan nan nan nan nan nan nan nan 300
272 271 272 273 273 275 278 279 280 283 286 285 277 273 270 270 268 269 274 280 287 288 294 303 305 309 315 317 321 322 316 318 319 319 322 324 320 316 318 319 321 322 319 318 317 318 321 322 324 322 320 320 323 326 324 317 311 304 301 301 308 313 313 310 310 304 298 295 293 292 295 298 298 298 299 nan nan 301 nan nan 301 nan nan nan nan
275 271 269 269 269 270 272 275 277 280 283 279 272 269 265 264 267 272 275 278 282 285 291 297 305 310 311 317 321 321 314 311 317 323 327 327 327 321 318 319 323 322 316 316 316 316 318 319 322 323 323 323 324 326 322 317 310 304 300 304 307 313 309 310 308 302 298 294 293 294 297 297 296 297 nan nan 298 299 304 306 306 305 306 nan nan
267 264 262 264 268 272 271 272 275 276 275 271 265 262 262 266 268 273 275 274 278 283 289 293 302 308 312 317 317 313 311 311 319 328 328 325 327 324 320 323 321 317 315 314 315 316 318 319 319 321 325 nan nan nan nan 313 312 304 302 304 305 304 306 308 303 295 296 294 295 296 297 297 298 298 298 nan nan 302 304 nan nan nan nan nan nan
260 260 263 267 270 271 270 266 266 265 265 260 258 260 260 263 267 272 270 274 281 283 283 289 299 302 305 309 310 311 311 316 313 319 320 322 326 326 320 321 318 316 314 314 313 nan 318 318 318 322 nan nan nan nan nan 310 308 300 302 301 299 305 306 303 299 297 297 297 298 298 298 298 299 nan nan nan 303 303 nan nan nan nan nan 304 302
257 257 259 262 266 268 267 267 261 256 258 257 257 259 259 262 265 266 269 273 278 279 281 286 292 296 299 303 305 307 309 311 312 311 318 320 325 324 320 316 316 315 315 315 nan 316 317 317 313 308 nan nan nan 313 310 309 305 304 303 300 304 307 305 301 299 299 299 299 298 299 299 300 nan nan nan nan nan nan nan nan nan nan nan 300 299
253 253 253 257 261 264 265 263 258 254 255 252 252 256 259 261 264 266 270 274 276 276 278 284 289 294 298 298 298 302 304 305 311 314 313 319 319 318 316 316 317 316 316 nan 315 315 314 312 307 nan nan nan nan 308 307 306 301 300 301 303 306 307 305 302 300 300 300 300 300 302 nan nan nan nan nan nan nan nan nan nan nan nan nan nan nan
256 253 252 252 257 261 262 259 254 251 250 251 250 252 256 260 262 262 266 267 270 274 280 284 286 290 295 298 299 300 302 304 304 310 313 315 316 318 318 316 319 317 315 313 311 311 306 nan nan nan nan nan nan nan 300 297 296 300 303 306 309 305 304 303 303 302 303 305 nan nan nan nan nan nan nan nan nan nan nan nan nan nan nan nan nan
255 254 253 254 259 262 260 253 250 247 246 244 246 249 255 258 260 261 263 265 269 275 279 282 286 290 294 296 299 300 301 301 302 303 306 310 314 319 319 318 317 313 307 302 300 nan nan nan nan nan 305 307 305 303 301 299 297 299 303 308 306 nan nan nan 305 nan nan nan nan nan nan nan nan nan nan nan nan nan nan nan nan nan nan nan nan
262 261 259 257 260 259 253 245 243 241 239 238 239 243 248 253 258 261 264 267 271 275 280 284 286 289 291 294 295 295 297 298 299 300 304 310 313 313 310 307 nan 303 300 nan nan nan nan 302 305 307 306 308 304 303 302 302 302 304 306 nan nan nan nan nan nan nan nan nan nan nan nan nan nan nan nan nan nan nan nan nan nan nan nan nan nan
262 260 260 259 260 254 242 239 242 238 235 237 241 243 247 253 258 261 265 270 273 276 279 282 287 289 290 291 292 291 292 294 298 302 306 310 312 311 309 nan nan nan nan nan nan nan 300 301 303 304 304 304 303 303 305 307 307 nan nan nan nan nan nan nan nan nan nan nan nan nan nan nan nan nan nan nan nan nan nan nan nan nan nan nan nan
256 261 261 253 246 239 230 227 231 235 234 232 231 232 239 249 255 252 250 261 274 278 277 280 284 288 291 293 294 293 293 299 304 305 308 312 313 311 310 nan nan nan nan nan nan 299 300 301 302 304 307 310 311 311 311 311 nan nan nan nan nan nan nan 313 316 nan nan nan nan nan nan nan nan nan nan nan nan nan nan nan nan nan nan nan nan
260 258 260 261 253 241 230 226 227 229 232 233 237 236 236 237 239 252 258 255 260 274 283 284 287 286 288 293 296 298 303 305 301 306 309 313 315 316 nan nan nan nan nan nan 302 302 nan nan nan 311 313 314 315 315 316 316 314 313 313 312 314 315 315 nan nan nan nan nan nan nan nan nan nan nan nan nan nan nan nan nan nan nan nan nan nan
266 264 266 263 251 237 231 228 225 224 227 232 235 239 238 236 238 242 252 259 265 270 273 280 286 289 290 289 283 279 289 297 305 307 308 311 310 nan nan nan nan nan nan 302 nan nan nan nan 311 313 315 nan nan 318 317 315 315 314 316 318 318 316 nan nan nan nan nan nan nan nan nan nan nan nan nan nan nan nan nan nan nan nan nan nan nan
268 270 271 265 248 231 224 221 220 221 223 228 233 236 239 243 242 241 244 253 257 264 275 283 287 287 290 289 286 282 290 300 304 305 306 306 nan nan nan nan nan nan nan nan nan nan nan 309 313 nan nan 317 319 319 317 nan nan nan 318 318 318 316 314 nan nan nan nan nan nan nan nan nan nan nan nan nan nan nan nan nan nan nan nan nan nan
268 270 266 252 232 219 214 212 213 216 221 228 232 237 242 246 250 249 246 248 251 254 254 255 262 269 275 282 290 294 295 296 298 300 302 nan nan nan nan nan nan nan nan nan nan 306 309 nan nan nan 317 318 nan nan nan nan nan nan nan 319 316 312 312 308 306 nan nan nan nan nan nan nan nan nan nan nan nan nan nan nan nan nan nan nan nan
265 254 228 208 205 206 209 213 217 221 225 230 234 238 241 245 249 252 254 255 253 252 251 252 258 266 267 274 281 284 289 294 297 299 nan nan nan nan nan nan nan nan nan nan nan nan nan nan nan nan nan nan nan nan nan nan nan nan 312 311 306 302 303 nan nan nan nan nan nan nan nan nan nan nan nan nan nan nan nan nan nan nan nan nan nan
219 209 210 204 206 210 216 223 228 232 236 239 244 247 248 247 249 251 254 257 260 263 263 259 256 259 271 277 279 283 287 292 297 300 nan nan nan nan nan nan nan nan nan nan nan nan nan nan nan nan nan nan nan nan nan nan nan 307 307 305 nan nan nan nan nan nan nan nan nan nan nan nan nan nan nan nan nan nan nan nan nan nan nan nan nan
198 202 209 217 219 222 228 234 237 239 240 240 242 245 249 249 248 248 251 256 261 264 263 261 264 267 270 272 276 280 284 nan nan nan nan nan nan 297 294 297 297 nan nan nan nan nan 308 nan nan nan nan nan nan nan nan nan nan nan nan nan nan nan nan nan nan nan nan nan nan nan nan nan nan nan nan nan nan nan nan nan nan nan nan nan nan
228 230 228 227 231 233 234 237 238 240 242 244 247 250 252 253 253 256 259 261 261 261 263 265 270 271 271 273 277 nan nan nan nan 289 292 297 301 297 297 301 303 303 304 306 306 307 nan nan nan nan nan nan nan nan nan nan nan nan nan nan nan nan nan nan nan nan nan nan nan nan nan nan nan nan nan nan nan nan nan nan nan nan nan nan nan
246 245 242 240 238 236 237 239 242 246 246 248 250 253 254 256 259 263 266 268 270 269 269 270 274 279 282 282 nan nan nan nan 279 nan nan 284 288 292 295 298 298 302 304 305 307 nan nan nan nan nan nan nan nan nan nan nan nan nan nan nan nan nan nan nan nan nan nan nan nan nan nan nan nan nan nan nan nan nan nan nan nan nan nan nan nan
247 247 250 249 243 242 245 245 245 245 248 251 254 257 259 261 262 263 267 270 271 271 272 275 279 283 nan nan nan nan nan nan nan nan nan nan 289 289 292 295 297 299 nan nan nan nan nan nan nan nan nan nan nan nan nan nan nan nan nan nan nan nan nan nan nan nan nan nan nan nan nan nan nan nan nan nan nan nan nan nan nan nan nan nan nan
252 251 252 252 246 247 248 247 247 249 252 255 257 259 260 260 nan nan nan nan nan 273 nan 278 280 nan nan nan nan nan nan nan nan nan nan nan nan nan 291 295 297 nan nan nan nan nan nan nan nan nan nan nan nan nan nan nan nan nan nan nan nan nan nan nan nan nan nan nan nan nan nan nan nan nan nan nan nan nan nan nan nan nan nan nan nan
248 249 249 249 251 252 251 251 250 252 254 256 nan nan nan nan 264 nan nan nan nan nan nan nan nan nan nan nan nan nan nan nan nan nan nan nan nan nan nan nan nan nan nan nan nan nan nan nan nan nan nan nan nan nan nan nan nan nan nan nan nan nan nan nan nan nan nan nan nan nan nan nan nan nan nan nan nan nan nan nan nan nan nan nan nan
247 250 249 246 246 248 249 251 256 259 259 262 263 nan nan nan nan nan nan nan 272 nan nan nan nan nan nan nan nan nan nan nan nan nan nan nan nan nan nan nan nan nan nan nan nan nan nan nan nan nan nan nan nan nan nan nan nan nan nan nan nan nan nan nan nan nan nan nan nan nan nan nan nan nan nan nan nan nan nan nan nan nan nan nan nan
248 248 250 248 249 252 253 255 255 258 262 265 267 266 268 270 272 273 273 273 272 nan nan nan nan nan nan nan nan nan nan nan nan nan nan nan nan nan nan nan nan nan nan nan nan nan nan nan nan nan nan nan nan nan nan nan nan nan nan nan nan nan nan nan nan nan nan nan nan nan nan nan nan nan nan nan nan nan nan nan nan nan nan nan nan
253 255 254 255 253 253 255 259 260 263 267 270 nan 272 272 272 272 272 272 270 267 nan nan nan nan 271 272 274 nan nan nan nan nan nan nan nan nan nan nan nan nan nan nan nan nan nan nan nan nan nan nan nan nan nan nan nan nan nan nan nan nan nan nan nan nan nan nan nan nan nan nan nan nan nan nan nan nan nan nan nan nan nan nan nan nan
255 258 259 260 258 258 257 261 266 269 273 276 277 276 275 272 270 270 269 267 266 nan nan nan nan nan nan nan nan nan nan nan nan nan nan nan nan nan nan nan nan nan nan nan nan nan nan nan nan nan nan nan nan nan nan nan nan nan nan nan nan nan nan nan nan nan nan nan nan nan nan nan nan nan nan nan nan nan nan nan nan nan nan nan nan
260 262 263 264 264 264 265 265 265 266 267 267 269 274 275 270 269 269 267 267 267 nan nan nan nan nan nan nan nan nan nan nan nan nan nan nan nan nan nan nan nan nan nan nan nan nan nan nan nan nan nan nan nan nan nan nan nan nan nan nan nan nan nan nan nan nan nan nan nan nan nan nan nan nan nan nan nan nan nan nan nan nan nan nan nan
262 264 266 267 266 266 265 265 263 265 270 271 261 242 251 268 270 268 269 273 273 nan nan nan nan nan nan nan nan nan nan nan nan nan nan nan nan nan nan nan nan nan nan nan nan nan nan nan nan nan nan nan nan nan nan nan nan nan nan nan nan nan nan nan nan nan nan nan nan nan nan nan nan nan nan nan nan nan nan nan nan nan nan nan nan
266 266 267 268 269 269 268 267 265 262 258 253 249 250 248 264 273 270 273 276 276 277 nan nan nan nan nan nan nan nan nan nan nan nan nan nan nan nan nan nan nan nan nan nan nan nan nan nan nan nan nan nan nan nan nan nan nan nan nan nan nan nan nan nan nan nan nan nan nan nan nan nan nan nan nan nan nan nan nan nan nan nan nan nan nan
268 270 270 269 268 269 269 268 263 256 nan 252 252 252 249 247 265 275 281 279 277 276 277 nan nan nan nan nan nan nan nan nan nan nan nan nan nan nan nan nan nan nan nan nan nan nan nan nan nan nan nan nan nan nan nan nan nan nan nan nan nan nan nan nan nan nan nan nan nan nan nan nan nan nan nan nan nan nan nan nan nan nan nan nan nan
264 264 265 264 263 261 263 262 258 252 nan nan nan nan nan nan nan nan 278 275 272 nan nan nan nan nan nan nan nan nan nan nan nan nan nan nan nan nan nan nan nan nan nan nan nan nan nan nan nan nan nan nan nan nan nan nan nan nan nan nan nan nan nan nan nan nan nan nan nan nan nan nan nan nan nan nan nan nan nan nan nan nan nan nan nan
255 252 252 254 251 248 247 247 247 246 nan nan nan nan nan nan nan nan nan nan nan nan nan nan nan nan nan nan nan nan nan nan nan nan nan nan nan nan nan nan nan nan nan nan nan nan nan nan nan nan nan nan nan nan nan nan nan nan nan nan nan nan nan nan nan nan nan nan nan nan nan nan nan nan nan nan nan nan nan nan nan nan nan nan nan